Regional Weather Roundup
Issued by NWS Upton, NY

Current Version | Previous Version | Graphics & Text | Print | Product List | Glossary Off
Versions: 1 2 3 4 5 6 7 8 9 10 11 12 13 14 15 16 17 18 19 20 21 22 23 24 25 26 27 28 29 30 31 32 33 34 35 36 37 38 39 40 41 42 43 44 45 46 47 48 49 50

000
ASUS41 KOKX 312004
RWROKX

REGIONAL WEATHER ROUNDUP
NATIONAL WEATHER SERVICE NEW YORK NY
400 PM EDT FRI JUL 31 2015

NOTE: "FAIR" INDICATES FEW OR NO CLOUDS BELOW 12,000 FEET WITH NO
SIGNIFICANT WEATHER AND/OR OBSTRUCTIONS TO VISIBILITY.

NYZ071-072-176-178-NJZ106-104-312100-
NEW YORK CITY METRO AREA


CITY           SKY/WX    TMP DP  RH WIND       PRES   REMARKS
CENTRAL PARK   MOSUNNY   88  54  31 MISG      29.85F
LAGUARDIA APRT MOSUNNY   90  52  27 W12G20    29.81F
KENNEDY INTL   PTSUNNY   85  61  44 S17       29.82F
NEWARK/LIBERTY MOSUNNY   90  56  31 W9G23     29.82F
BRNX BOT. GARD   N/A     88  50  27 NW7       29.82S
TETERBORO      MOSUNNY   89  52  28 W13       29.80F
$$

NYZ177-179-078>081-312100-
LONG ISLAND NEW YORK

CITY           SKY/WX    TMP DP  RH WIND       PRES   REMARKS
FARMINGDALE    SUNNY     90  54  29 W12       29.81F
ISLIP          MOSUNNY   90  53  28 W12G21    29.80F
SHIRLEY        SUNNY     88  59  37 W12G17    29.81F
WESTHAMPTON    SUNNY     87  58  37 SW13      29.82F
MONTAUK POINT    N/A     86  60  41 SW7G16    29.81F
$$

NYZ052-065-067-312100-
HUDSON VALLEY

CITY           SKY/WX    TMP DP  RH WIND       PRES   REMARKS
WHITE PLAINS   MOSUNNY   86  55  34 NW13      29.83F
NEWBURGH       SUNNY     88  54  31 NW17G25   29.84F
MONTGOMERY     SUNNY     87  54  32 NW9G20    29.83F
POUGHKEEPSIE   MOSUNNY   88  51  28 W14G20    29.80F
ALBANY         MOSUNNY   84  52  33 NW16      29.81F
$$

NJZ001-105-106-008-010-013-015-019>022-104-312100-
NEW JERSEY

CITY           SKY/WX    TMP DP  RH WIND       PRES   REMARKS
NEWARK/LIBERTY MOSUNNY   90  56  31 W9G23     29.82F
TETERBORO      MOSUNNY   89  52  28 W13       29.80F
CALDWELL       SUNNY     89  51  27 NW9       29.83F
MORRISTOWN     MOSUNNY   90  55  31 NW10      29.83F
SOMERVILLE     SUNNY     89  55  31 NW8G16    29.82F
SUSSEX         SUNNY     85  54  34 VRB5      29.85F
ANDOVER          N/A     85  53  33 VRB3      29.86F
TRENTON        SUNNY     89  57  33 NW10G16   29.84F
MILLVILLE      PTSUNNY   89  59  36 NW9       29.86F
ATLANTIC CITY  MOSUNNY   86  59  39 W12       29.85F
WRIGHTSTOWN    MOSUNNY   88  59  37 VRB5      29.81F
TOMS RIVER       N/A     88  55  33 NW10      29.84F
BELMAR         MOSUNNY   88  57  35 W9        29.84F
$$

PAZ047>061-062-071-312100-
EASTERN PENNSYLVANIA

CITY           SKY/WX    TMP DP  RH WIND       PRES   REMARKS
PHILADELPHIA   MOSUNNY   90  54  29 W7G17     29.85F
ALLENTOWN      SUNNY     86  57  37 W10       29.86F
SCRANTON       PTSUNNY   85  54  34 VRB5G17   29.88F
$$

CTZ002-004>006-009-010-012-RIZ004-006-007-MAZ004-011-015-312100-
SOUTHERN NEW ENGLAND
 IN CT

CITY           SKY/WX    TMP DP  RH WIND       PRES   REMARKS
BRADLEY INTL   MOSUNNY   88  54  31 W13       29.78F
HARTFORD       MOSUNNY   88  55  32 W14G21    29.78F
DANBURY        SUNNY     85  54  34 W9        29.83F
WTRBRY/OXFORD  MOSUNNY   82  55  39 NW8       29.86S
BRIDGEPORT     MOSUNNY   89  57  33 SW9       29.80F
MERIDEN        SUNNY     89  54  30 NW9       29.79F
NEW HAVEN      MOSUNNY   84  64  50 S10       29.80F
CHESTER        FAIR      84  55  37 W8        29.82S
GROTON         SUNNY     83  64  52 SW13      29.79F
WILLIMANTIC    MOSUNNY   87  55  33 NW10      29.79F

 IN RI

CITY           SKY/WX    TMP DP  RH WIND       PRES   REMARKS
PROVIDENCE     MOSUNNY   88  57  34 W13       29.78S
BLOCK ISLAND     N/A     82  66  57 SW14G21   29.82S
WESTERLY       SUNNY     83  61  47 SW15      29.80F

 IN MA

CITY           SKY/WX    TMP DP  RH WIND       PRES   REMARKS
BOSTON         MOSUNNY   88  56  33 W18G28    29.75S
WORCESTER      MOSUNNY   81  53  37 W20       29.82S
WESTFIELD      SUNNY     86  53  32 W14       29.80S
PROVINCETOWN   SUNNY     88  57  35 W12       29.75S
NANTUCKET      SUNNY     82  67  60 W14       29.79F
$$

ANZ330-335-338-340-345-350-353-355-312100-
COASTAL MARINE OBSERVATIONS


STATION/POSITION TIME  SKY/WX   TEMP    WIND        PRES    VSBY  WAVE
                                AIR SEA DIR/SP/G                  HT/PER
                 (UTC)          (F)     (DEG/KT/KT) (MB)    (MI)  (FT/S)
NY HARB ENTRANCE 1850            79 78  200/ 12/ 12 1010.2          2/ 8
4S FIRE IS       NOT AVBL
20S FIRE ISLAND  1850            77 77  240/  8/  8 1010.4          3/ 6
GREAT SOUTH BAY  1915            80 82  200/ 12/ 16   N/A
23SW MTP         1950            76 76  240/ 10/ 12 1009.3          4/ 7
HUDSON CANYON    NOT AVBL
KINGS POINT      1900            84 70   10/  6/  8 1009.3
EXECUTION ROCKS  1900            83     300/  4/  8   N/A
CENTRAL LI SOUND NOT AVBL
EASTERN LI SOUND 1900            75 68  240/ 10/ 12   N/A
ROBBINS REEF     1900            85     300/  8/ 11 1008.9
$$


>>>>>>>>>>>>>>>>>>>>>>>>>>>> KEY <<<<<<<<<<<<<<<<<<<<<<<<<<<
>                                                          <
>     SKY/WX - SKY CONDITION/PRESENT WEATHER               <
>     TMP    - TEMPERATURE IN FAHRENHEIT                   <
>     DP     - DEWPOINT IN FAHRENHEIT                      <
>     RH     - RELATIVE HUMIDITY IN PERCENT                <
>     WIND   - DIRECTION AND SPEED IN MPH                  <
>     PRES   - MEAN SEA LEVEL PRESSURE IN INCHES OF HG     <
>     WCI    - WIND CHILL INDEX                            <
>     VSB    - VISIBILITY IN MILES                         <
>     HX     - HEAT INDEX                                  <
>     TC     - TEMPERATURE IN CELSIUS                      <
>     VRB    - VARIABLE WIND DIRECTION                     <
>                                                          <
>>>>>>>>>>>>>>>>>>>>>>>>>>>> KEY <<<<<<<<<<<<<<<<<<<<<<<<<<<




USA.gov is the U.S. government's official web portal to all federal, state and local government web resources and services.